User: anonymous   Login
Location: Theydon Bois
(51.6750°N, 0.1050°E)
Time: 20:53:16
(UTC+01:00)
Language:

Cosmos 1703 - Orbit

View from above orbital plane
View from above orbital plane
View from above satellite
View from above satellite

Ground track
Ground track

The orbit data is extracted from the following two-line orbital elements,

1 16262U 85108A   17292.63551628  .00000792  00000-0  46239-4 0  9992
2 16262  82.4743 127.7253 0010975 196.6853 163.4017 15.10498504737684
Epoch (UTC): 19 October 2017 15:15:08
Eccentricity: 0.0010975
inclination: 82.4743°
perigee height: 527 km
apogee height: 542 km
right ascension of ascending node: 127.7253°
argument of perigee: 196.6853°
revolutions per day: 15.10498504
mean anomaly at epoch: 163.4017°
orbit number at epoch: 73768

The dashed part of the orbit path shows where the satellite is in the earth's shadow,  

DLR